Location: Binningen
(47.7924°N, 8.7261°E)
Time: 03:03:40
(UTC+00:00)

Cosmos 1943 Rocket - Pass Details

Date: 17 May 2021
Orbit: 813 x 842 km, 71.0° (Epoch: 14 June)

Event Time Altitude Azimuth Distance (km) Brightness Sun altitude
Exits shadow 21:55:59 - 227° (SW) 3,343 5.1 -20.0°
Reaches altitude 10° 21:58:27 10° 233° (SW) 2,443 4.4 -20.1°
Maximum altitude 22:03:47 44° 305° (NW) 1,139 3.2 -20.4°
Drops below altitude 10° 22:09:08 10° 18° (NNE) 2,439 5.3 -20.7°
Sets 22:11:41 0° 25° (NNE) 3,371 6.1 -20.9°
